This is the latest recevied weather packets stored in our database for station/object K1RFS. If no packets are shown the sender has not sent any weather packets the latest 10 day(s).
| Time | Temp. | Humidity | Pressure | Rain* | Wind** | Luminosity | Snow |
|---|---|---|---|---|---|---|---|
| 1788116816 | 25.56° C | 52% | 1003.8 hPa | 0 mm | - | 603 W/m² | - |
| 1788116511 | 25.56° C | 52% | 1003.8 hPa | 0 mm | - | 603 W/m² | - |
| 1788116209 | 25.56° C | 52% | 1003.8 hPa | 0 mm | - | 607 W/m² | - |
| 1788115905 | 25.56° C | 52% | 1003.9 hPa | 0 mm | - | 594 W/m² | - |
| 1788115604 | 25° C | 53% | 1003.7 hPa | 0 mm | - | 591 W/m² | - |
| 1788115299 | 25° C | 52% | 1003.7 hPa | 0 mm | - | 587 W/m² | - |
| 1788114999 | 25° C | 53% | 1003.7 hPa | 0 mm | - | 581 W/m² | - |
| 1788114695 | 25° C | 54% | 1003.8 hPa | 0 mm | - | 578 W/m² | - |
| 1788114395 | 24.44° C | 54% | 1003.9 hPa | 0 mm | - | 571 W/m² | - |
| 1788114092 | 24.44° C | 55% | 1004 hPa | 0 mm | - | 568 W/m² | - |
| 1788113787 | 24.44° C | 54% | 1003.8 hPa | 0 mm | - | 563 W/m² | - |
| 1788113487 | 24.44° C | 54% | 1003.9 hPa | 0 mm | - | 554 W/m² | - |
| 1788113186 | 24.44° C | 54% | 1004.1 hPa | 0 mm | - | 548 W/m² | - |
| 1788112887 | 23.89° C | 55% | 1004 hPa | 0 mm | - | 541 W/m² | - |
| 1788112585 | 23.89° C | 53% | 1003.7 hPa | 0 mm | - | 535 W/m² | - |
| 1788112281 | 23.89° C | 54% | 1003.8 hPa | 0 mm | - | 43 W/m² | - |
| 1788111976 | 23.89° C | 52% | 1003.9 hPa | 0 mm | - | 42 W/m² | - |
| 1788111671 | 23.33° C | 55% | 1004 hPa | 0 mm | - | 42 W/m² | - |
| 1788111366 | 23.33° C | 55% | 1004.1 hPa | 0 mm | - | 41 W/m² | - |
| 1788111061 | 23.33° C | 53% | 1004 hPa | 0 mm | - | 41 W/m² | - |
| 1788110759 | 23.33° C | 52% | 1003.7 hPa | 0 mm | - | 40 W/m² | - |
| 1788110454 | 23.33° C | 52% | 1003.9 hPa | 0 mm | - | 40 W/m² | - |
| 1788110149 | 23.33° C | 53% | 1003.7 hPa | 0 mm | - | 40 W/m² | - |
| 1788109844 | 23.33° C | 52% | 1003.9 hPa | 0 mm | - | 40 W/m² | - |
| 1788109544 | 23.33° C | 55% | 1003.8 hPa | 0 mm | - | 40 W/m² | - |
* Rain latest hour (hover to see other rain measurements)
** Current wind speed in m/s (hover to see current wind gust speed)